Regional Weather Roundup
Issued by NWS Grand Forks, ND

Home | Current Version | Previous Version | Text Only | Print | Product List | Glossary Off
Versions: 1 2 3 4 5 6 7 8 9 10 11 12 13 14 15 16 17 18 19 20 21 22 23 24 25 26 27 28 29 30 31 32 33 34 35 36 37 38 39 40 41 42 43 44 45 46 47 48 49 50

000
ASUS43 KFGF 051231
RWRFGF
PRAIRIE TO PINES  WEATHER ROUNDUP
NATIONAL WEATHER SERVICE EASTERN NORTH DAKOTA/GRAND FORKS ND
600 AM CST THU MAR 05 2015

 **SATELLITE DATA USED TO AUGMENT SKY COVER AT AUTOMATED STATIONS**
 *****  WEATHER ACROSS EASTERN NORTH DAKOTA  *****

CITY           SKY/WX    TMP DP  RH WIND       PRES   REMARKS
GRAND FORKS    MOCLDY   -13 -18  78 S7        30.35F WCI -29
6HR MIN TEMP: -15; 6HR MAX TEMP: -11;

GRAND FRKS AFB MOCLDY   -10 -17  69 SW7       30.33F WCI -25
GRAND FRKS NWS   N/A     -9 N/A N/A SW6         N/A  WCI -23
DEVILS LAKE    PTCLDY    -8 -18  59 CALM      30.22F
6HR MIN TEMP: -11; 6HR MAX TEMP:  -8;

FARGO          PTCLDY    -8 -15  71 S7        30.40S WCI -23
WAHPETON ARPT  MOSUNNY   -9 -17  70 W5        30.43S WCI -21
$$

 ***** WEATHER ACROSS CENTRAL AND WESTERN NORTH DAKOTA  *****

CITY           SKY/WX    TMP DP  RH WIND       PRES   REMARKS
BISMARCK       PTCLDY    -5 -11  75 E6        30.23F WCI -18
6HR MIN TEMP:  -8; 6HR MAX TEMP:  -5;

MINOT          MOCLDY    -4 -12  68 S9        30.14S WCI -20
6HR MIN TEMP:  -9; 6HR MAX TEMP:   0;

JAMESTOWN      MOCLDY   -10 -16  74 S8        30.27F WCI -26
6HR MIN TEMP: -12; 6HR MAX TEMP:  -7;

MINOT AFB      MOCLDY    -4 -11  70 S9        30.14S WCI -20
GARRISON         N/A     -8 -12  83 S5        30.15F WCI -19
WILLISTON        N/A    N/A N/A N/A MISG      30.08F
DICKINSON      PTCLDY     5  -3  69 S14       30.06S WCI -12
6HR MIN TEMP:  -1; 6HR MAX TEMP:   5;

HETTINGER      MOCLDY     4  -5  66 CALM      30.12S
6HR MIN TEMP:  -2; 6HR MAX TEMP:   5;

$$

 *****  OTHER AIRPORT OBSERVATIONS IN OUR AREA  *****

CITY           SKY/WX    TMP DP  RH WIND       PRES   REMARKS
WALHALLA         N/A     -4 -13  65 SW6       30.28F WCI -16
GRAFTON AIRPOR NOT AVBL
VALLEY CITY AR   N/A    -13 -17  84 S7        30.30F WCI -29
CANDO          FAIR     -18 -22  83 S6        30.21F WCI -33
CAVALIER APRT  FAIR      -9 -17  70 S6        30.30F WCI -23
GWINNER        SUNNY     -6 -13  71 S13       30.38S WCI -25
ROLLA          FAIR      -8 -13  77 SW10      30.15F WCI -26
 ***** THE ABOVE OBSERVATIONS ARE NON NWS ARE NOT QUALITY
       CONTROLLED AND MAY MIS-REPORT RAIN FOR SNOW...
$$

  *****  WEATHER ACROSS NORTHERN MINNESOTA  *****

CITY           SKY/WX    TMP DP  RH WIND       PRES   REMARKS
FLAG ISLAND    PTCLDY   -17 -22  76 S6        30.26F WCI -31
WARROAD        MOCLDY   -15 -20  76 SW6       30.27F WCI -29
ROSEAU         MOCLDY   -17 -24  70 S8        30.29F WCI -34
HALLOCK        MOCLDY   -13 -20  70 S9        30.31F WCI -31
THF RVR FALLS  MOCLDY   -15 N/A N/A SW8       30.31S WCI -32
6HR MIN TEMP: -17; 6HR MAX TEMP: -11;

BAUDETTE       MOCLDY   -18 -23  77 S5        30.28F WCI -31
6HR MIN TEMP: -19; 6HR MAX TEMP: -13;

WASKISH        MOCLDY   -17 -20  83 CALM      30.31F
CROOKSTON      MOCLDY   -11 -17  77 S7        30.37F WCI -26
$$
  *****  WEATHER ACROSS CENTRAL AND WEST MINNESOTA  *****

CITY           SKY/WX    TMP DP  RH WIND       PRES   REMARKS
FOSSTON        MOCLDY   -20 -26  76 S7        30.33F WCI -37
BEMIDJI        FAIR     -16 -20  79 CALM      30.31S
PARK RAPIDS    MOCLDY   -19 -26  70 W3        30.32S
6HR MIN TEMP: -20; 6HR MAX TEMP: -13;

ELBOW LAKE     FAIR     -15 -20  81 S3        30.40S
6HR MIN TEMP: -15; 6HR MAX TEMP: -11;

WADENA         MOCLDY   -15 -20  76 SW5       30.35S WCI -27
DETROIT LAKES  MOCLDY   -13 -17  84 CALM      30.35F
MOORHEAD       PTCLDY    -8 -11  84 S7        30.41S WCI -22
FERGUS FALLS   PTCLDY   -15 -20  76 S5        30.45S WCI -27
MORRIS MN      PTCLDY   -13 -18  77 CALM      30.42R
STAPLES        MOCLDY   -24 -29  76 S3        30.37S
$$
  *****  WEATHER ELSEWHERE ACROSS MINNESOTA  *****

CITY           SKY/WX    TMP DP  RH WIND       PRES   REMARKS
DULUTH         PTCLDY   -13 -19  75 NW6       30.31R WCI -27
6HR MIN TEMP: -14; 6HR MAX TEMP: -10;

INTRNTL FALLS  PTCLDY   -24 -29  77 SW3       30.31S
6HR MIN TEMP: -24; 6HR MAX TEMP: -14;

ELY            PTCLDY   -26 -29  83 CALM      30.30R
CLOQUET        CLEAR    -17 -20  83 W7        30.34S WCI -33
WHEATON        PTCLDY   -13 -18  77 SW7       30.45S WCI -29
BRAINERD       MOCLDY   -26 -30  81 CALM      30.38R
6HR MIN TEMP: -26; 6HR MAX TEMP:  -9;

HIBBING        FAIR     -29 -36  69 CALM      30.32R
6HR MIN TEMP: -30; 6HR MAX TEMP: -13;

ALEXANDRIA     MOCLDY   -15 -19  82 SW6       30.38R WCI -29
6HR MIN TEMP: -16; 6HR MAX TEMP: -10;

SAINT CLOUD    PTCLDY   -12 -17  78 CALM      30.43R
6HR MIN TEMP: -12; 6HR MAX TEMP:  -7;

MINNEAPOLIS    CLEAR     -6 -12  75 W5        30.47R WCI -17
6HR MIN TEMP:  -6; 6HR MAX TEMP:  -2;

$$

  *****  WEATHER ACROSS SOUTH DAKOTA  *****

CITY           SKY/WX    TMP DP  RH WIND       PRES   REMARKS
SIOUX FALLS    PTCLDY    -9 -14  78 CALM      30.44R
6HR MIN TEMP: -10; 6HR MAX TEMP:  -6;

BROOKINGS      NOT AVBL
WATERTOWN      PTCLDY   -14 -19  79 SW7       30.37R WCI -30
6HR MIN TEMP: -18; 6HR MAX TEMP: -10;

HURON          PTCLDY    -6 -12  75 S7        30.42R WCI -20
6HR MIN TEMP: -10; 6HR MAX TEMP:  -6;

SISSETON         N/A    -10 -16  74 SW6       30.41R WCI -23
ABERDEEN       CLEAR    -17 -23  73 S8        30.39S WCI -35
6HR MIN TEMP: -19; 6HR MAX TEMP: -12;

MITCHELL       PTCLDY    -6 -11  79 S5        30.44S WCI -17
PIERRE         PTCLDY    -6  -9  86 SE5       30.30F WCI -17
6HR MIN TEMP:  -9; 6HR MAX TEMP:  -3;

MOBRIDGE       PTCLDY    -1  -7  75 SE10      30.23F WCI -17
RAPID CITY     CLEAR      1  -3  83 CALM      30.14S
6HR MIN TEMP:  -1; 6HR MAX TEMP:   8;

$$

  *****  SOME WEATHER IN NEARBY STATES *****

CITY           SKY/WX    TMP DP  RH WIND       PRES   REMARKS
GLASGOW MT     CLEAR     10   0  63 SE5       30.01S WCI   2
6HR MIN TEMP:   9; 6HR MAX TEMP:  14;

GREAT FALLS MT PTCLDY    27  12  53 SW15      30.07R WCI  15
6HR MIN TEMP:  24; 6HR MAX TEMP:  29;

CHEYENNE WY    CLEAR     21   3  45 W12       30.10R WCI   9
6HR MIN TEMP:   7; 6HR MAX TEMP:  22;

SCOTTSBLUFF NE CLEAR      8   2  76 CALM      30.18F
6HR MIN TEMP:   5; 6HR MAX TEMP:  10;

OMAHA NE       CLEAR      4  -3  73 CALM      30.53R
6HR MIN TEMP:   3; 6HR MAX TEMP:   8;

DES MOINES IA  PTCLDY     3  -7  63 N3        30.52R
6HR MIN TEMP:   3; 6HR MAX TEMP:  11; 6HR PCP: TRACE;

DAVENPORT IA   CLEAR     -6 -13  71 NW7       30.47R WCI -20
6HR MIN TEMP:  -6; 6HR MAX TEMP:   7;

CHICAGO IL     MOCLDY     5  -8  55 NW10      30.40R WCI -10
6HR MIN TEMP:   4; 6HR MAX TEMP:  10;

EAU CLAIRE WI  CLEAR    -11 -18  71 SW3       30.43R
6HR MIN TEMP: -13; 6HR MAX TEMP:  -2;

LA CROSSE WI   CLEAR     -3 -11  68 N5        30.48R WCI -13
6HR MIN TEMP:  -5; 6HR MAX TEMP:   3;

$$

  *****  SOME NATIONAL WEATHER *****

CITY           SKY/WX    TMP DP  RH WIND       PRES   REMARKS
LA GUARDIA NY  SNOW      32  30  93 NW8       30.04R VSB 1/4 WCI  25
6HR MIN TEMP:  33; 6HR MAX TEMP:  40; 6HR PCP:  0.16;

RALEIGH NC     CLOUDY    63  58  83 W5        29.89R
6HR MIN TEMP:  62; 6HR MAX TEMP:  66; 6HR PCP: TRACE;

ATLANTA GA     CLOUDY    64  62  93 NW7       29.89R
6HR MIN TEMP:  64; 6HR MAX TEMP:  67; 6HR PCP:  0.10;

NEW ORLEANS LA CLOUDY    48  46  93 NW23G31   30.06R
6HR MIN TEMP:  51; 6HR MAX TEMP:  72; 6HR PCP: TRACE;

OKLAHOMA CITY  PTCLDY    11   6  81 NW6       30.51R WCI   1
6HR MIN TEMP:  11; 6HR MAX TEMP:  21;

ALBUQUERQUE NM CLEAR     24  18  77 N9        30.34R WCI  14
6HR MIN TEMP:  24; 6HR MAX TEMP:  36;

SALT LAKE CITY CLEAR     29  18  63 SE9       30.37S WCI  20
6HR MIN TEMP:  27; 6HR MAX TEMP:  30;

LOS ANGELES CA PTCLDY    51  34  52 NE5       30.18R
6HR MIN TEMP:  49; 6HR MAX TEMP:  58;

BOISE ID       PTCLDY    26  15  63 SE6       30.34R WCI  19
6HR MIN TEMP:  26; 6HR MAX TEMP:  30;



USA.gov is the U.S. government's official web portal to all federal, state and local government web resources and services.